Weather in Osinovo

Russia / Arkhangel'skaya Oblast'     62°52′01″N   42°47′21″E
temp.,
°C
wind,
m/s
gust,
m/s
humid.,
%
clouds,
%
prec.,
mm/h
press.,
hPa
HPBL,
m
28 november, sun
sun2800:00−15ne1299100 0.0 101144
03:00−10ne2694100 0.0 1008204
06:00−9nne3894100 0.2 1006304
09:00−9nne31095100 1.1 1005375
12:00−8nne3895100 0.8 1004372
15:00−9n3895100 1.1 1003355
18:00−9n3795100 0.4 1003332
21:00−10n3795100 1.4 1003322
29 november, mon
mon2900:00−10nnw3795100 0.9 1004334
03:00−11nnw3795100 1.1 1006317
06:00−13nw3795100 0.1 1009258
09:00−16nw2597100 0.1 1011119
12:00−15nw249796 0.0 1013100
15:00−20nw1110039 0.0 10149
18:00−21nne1110067 0.0 10149
21:00−22ene1110099 0.0 10149
30 november, tue
tue3000:00−19ene149836 0.0 101267
03:00−16ene2996100 0.0 1008241
06:00−14ene41490100 0.0 1004448
09:00−12ene41586100 0.0 999535
12:00−10ene51592100 0.1 994573
15:00−9ene51493100 0.9 989698
18:00−9ene51394100 0.9 985684
21:00−8ne41294100 1.9 982674
1 december, wed
wed100:00−8ne41194100 1.1 980597
03:00−8nne3995100 1.6 979486
06:00−7nne2696100 0.8 979326
09:00−8nne1397100 1.3 98186
12:00−6n1196100 0.6 982115
15:00−6w1297100 1.3 983129
18:00−8sw1397100 0.4 984101
21:00−8sw1397100 1.0 985181
2 december, thu
thu200:00−8s1497100 1.1 985225
03:00−8ssw1397100 2.0 985219
06:00−9sw2496100 0.5 986186
09:00−10sw259799 0.9 986154
12:00−9sw269599 0.2 987293
15:00−8ssw2696100 0.5 988247
18:00−8wsw399388 0.3 989396
21:00−9wsw399297 0.3 991368